SCP
0 0 0 0 0 0 0 0 0 0 0 0 0 0 0 0 0 0 0 0 0 0 0 0 0 0 0 0 0 0 0 0 0 0 0 0 0 0
0 0 0 0 0 0 0 0 0 0 0 0 0 0 0 0 0 0 0 0 0 0 0 0 0 0 0 0 0 0 0 0 0 0 0 0 0 0
0 0 0 0 0 0 0 0 0 0 0 0 0 0 0 0 0 0 0 0 0 0 0 0 0 0 0 0 0 0 0 0 0 0 0 0 0 0
0 0 0 0 0 0 0 0 0 0 0 0 0 0 0 0 0 0 0 0 0 0 0 0 0 0 0 0 0 0 0 0 0 0 0 0 0 0
0 0 0 0 0 0 0 0 0 0 0 0 0 0 0 0 0 0 0 0 0 0 0 0 0 0 0 0 0 0 0 0 0 0 0 0 0 0
0 0 0 0 0 0 0 0 0 0 0 0 0 0 0 0 0 0 0 0 0 0 0 0 0 0 0 0 0 0 0 0 0 0 0 0 0 0
0 0 0 0 0 0 0 0 0 0 0 0 0 0 0 0 0 0 0 0 0 0 0 0 0 0 0 0 0 0 0 0 0 0 0 0 0 0
0 0 0 0 0 0 0 0 0 0 0 0 0 0 0 0 0 0 0 0 0 0 0 0 0 0 0 0 0 0 0 0 0 0 0 0 0 0
0 0 0 0 0 0 0 0 0 0 0 0 0 0 0 0 0 0 0 0 0 0 0 0 0 0 0 0 0 0 0 0 0 0 0 0 0 0
0 0 0 0 0 0 0 0 0 0 0 0 0 0 0 0 0 0 0 0 0 0 0 0 0 0 0 0 0 0 0 0 0 0 0 0 0 0
0 0 0 0 0 0 0 0 0 0 0 0 0 0 0 0 0 0 0 0 0 0 0 0 0 0 0 0 0 0 0 0 0 0 0 0 0 0
0 0 0 0 0 0 0 0 0 0 0 0 0 0 0 0 0 0 0 0 0 0 0 0 0 0 0 0 0 0 0 0 0 0 0 0 0 0
0 0 0 0 0 0 0 0 0 0 0 0 0 0 0 0 0 0 0 0 0 0 0 0 0 0 0 0 0 0 0 0 0 0 0 0 0 0
0 0 0 0 0 0 0 0 0 0 0 0 0 0 0 0 0 0 0 0 0 0 0 0 0 0 0 0 0 0 0 0 0 0 0 0 0 0
0 0 0 0 0 0 0 0 0 0 0 0 0 0 0 0 0 0 0 0 0 0 0 0 0 0 0 0 0 0 0 0 0 0 0 0 0 0
0 0 0 0 0 0 0 0 0 0 0 0 0 0 0 0 0 0 0 0 0 0 0 0 0 0 0 0 0 0 0 0 0 0 0 0 0 0
0 0 0 0 0 0 0 0 0 0 0 0 0 0 0 0 0 0 0 0 0 0 0 0 0 0 0 0 0 0 0 0 0 0 0 0 0 0
0 0 0 0 0 0 0 0 0 0 0 0 0 0 0 0 0 0 0 0 0 0 0 0 0 0 0 0 0 0 0 0 0 0 0 0 0 0
0 0 0 0 0 0 0 0 0 0 0 0 0 0 0 0 0 0 0 0 0 0 0 0 0 0 0 0 0 0 0 0 0 0 0 0 0 0
0 0 0 0 0 0 0 0 0 0 0 0 0 0 0 0 0 0 0 0 0 0 0 0 0 0 0 0 0 0 0 0 0 0 0 0 0 0
0 0 0 0 0 0 0 0 0 0 0 0 0 0 0 0 0 0 0 0 0 0 0 0 0 0 0 0 0 0 0 0 0 0 0 0 0 0
0 0 0 0 0 0 0 0 0 0 0 0 0 0 0 0 0 0 0 0 0 0 0 0 0 0 0 0 0 0 0 0 0 0 0 0 0 0
0 0 0 0 0 0 0 0 0 0 0 0 0 0 0 0 0 0 0 0 0 0 0 0 0 0 0 0 0 0 0 0 0 0 0 0 0 0
Wind_Speed
2 2 1 1 1 2 3 3 4 8 8 6 5 5 6 7 10 10 10 16 19 20 20 21 21 22 22 23 23 23 23 23 23 23 22 22 21 20
2 2 2 2 2 2 3 3 4 6 8 5 6 8 10 10 14 12 11 19 20 20 21 20 20 21 22 22 23 23 23 24 24 24 23 23 23 21
3 3 4 4 3 3 3 3 4 5 9 9 7 8 10 12 12 12 11 11 11 19 21 21 21 21 21 22 22 22 22 23 23 24 24 24 23 22
4 4 5 4 5 5 4 5 6 6 7 11 9 9 10 12 12 13 11 10 10 16 21 21 22 22 21 20 20 20 19 19 20 22 23 23 23 22
4 5 6 6 6 6 6 6 6 7 7 8 10 8 8 9 10 11 12 10 11 13 17 19 20 20 20 19 18 18 16 15 16 18 19 19 19 19
5 6 6 7 7 8 7 7 7 8 8 8 9 9 9 9 8 8 9 8 9 10 13 14 16 19 19 19 18 18 16 14 15 15 15 15 15 15
7 7 7 10 11 8 7 8 8 7 7 7 8 8 8 7 7 6 8 8 10 8 8 8 9 8 10 13 16 17 15 13 13 14 14 14 14 14
8 8 9 9 10 12 14 14 13 10 9 8 7 9 9 9 8 7 8 8 6 4 5 8 7 8 8 7 12 14 14 12 12 12 13 14 14 14
7 8 7 8 10 8 11 14 13 14 13 9 9 9 10 9 8 8 7 8 8 6 6 7 6 7 7 7 12 13 12 12 12 12 12 13 13 13
8 8 8 9 8 9 9 10 10 9 10 8 8 9 9 8 8 7 8 8 8 7 4 5 5 6 7 6 8 10 11 11 11 11 11 12 12 13
8 8 8 8 10 12 9 9 10 9 9 10 11 11 11 11 8 6 6 6 6 5 2 3 4 6 6 5 5 7 8 9 10 10 10 11 11 11
8 8 9 9 12 12 8 8 9 9 10 10 9 8 7 7 7 5 5 5 5 4 3 4 4 4 5 4 4 4 4 6 8 9 10 10 11 8
7 7 7 12 13 12 9 6 9 10 8 8 7 6 5 5 5 4 4 4 5 4 4 4 4 3 4 5 5 4 4 4 4 5 7 9 11 10
6 6 7 12 13 12 8 9 12 9 5 5 5 5 4 5 5 5 5 5 4 5 6 6 4 4 4 4 4 5 4 3 2 3 3 5 7 10
6 10 11 11 10 8 9 11 9 5 5 5 6 5 4 5 5 5 5 5 4 4 5 5 5 5 5 4 5 4 4 3 2 1 1 2 3 5
7 8 10 9 8 7 7 7 5 5 5 5 5 5 5 5 4 4 4 5 4 5 5 6 6 6 6 6 5 5 5 4 4 3 2 3 3 3
7 4 5 6 7 7 7 6 6 6 6 5 5 5 5 5 5 5 5 5 5 6 7 7 6 3 4 8 6 7 7 6 6 6 5 5 5 4
5 4 5 6 6 6 7 6 6 6 6 5 5 5 5 6 6 5 5 6 6 7 7 7 7 6 4 6 14 9 8 7 7 8 7 7 7 6
4 5 5 6 6 6 6 6 6 6 5 4 4 5 5 5 6 6 6 6 6 7 7 8 8 8 9 9 11 17 9 8 8 9 9 8 8 8
5 5 5 6 6 6 6 6 6 6 5 5 4 4 4 5 5 6 6 7 7 7 8 8 8 8 8 7 6 10 19 11 8 9 8 8 8 10
5 5 5 6 6 6 6 6 6 6 6 5 5 4 4 4 5 6 6 8 8 8 8 8 9 10 6 5 7 10 12 18 17 10 7 7 8 10
5 6 6 6 6 6 7 7 6 6 7 6 5 4 4 4 5 7 7 7 7 7 8 7 8 8 9 10 10 11 11 12 16 23 23 17 8 7
5 6 6 6 6 6 6 7 7 6 6 6 5 5 4 4 4 5 6 6 7 8 8 8 8 8 9 9 9 9 13 12 10 12 13 20 22 21
Wind_Direction
48 36 351 297 267 252 246 244 270 291 292 282 279 278 284 283 278 281 278 282 286 286 285 283 281 279 277 275 273 271 269 267 266 263 259 255 253 252
27 18 349 315 304 292 274 261 250 270 287 282 280 286 289 290 289 289 284 286 286 286 285 283 281 279 276 274 272 270 267 264 261 260 257 253 250 249
15 358 333 317 311 307 294 282 270 264 282 291 281 283 282 284 289 289 286 282 279 280 282 282 280 278 277 275 273 270 267 265 261 258 256 252 248 246
354 340 329 325 314 303 296 289 282 271 274 292 296 292 285 285 286 286 286 282 279 280 282 281 280 278 278 276 273 269 266 263 261 258 255 250 247 244
333 323 314 312 305 300 295 287 282 281 272 283 293 292 289 288 288 285 284 281 281 280 281 279 279 280 280 278 275 270 263 257 256 254 252 248 245 244
324 313 307 300 291 291 290 286 287 287 285 284 289 293 293 292 286 288 293 290 289 287 282 280 279 281 280 278 274 269 260 252 250 247 242 240 239 238
324 318 310 306 308 308 307 304 301 293 291 291 293 296 297 301 299 291 293 297 291 281 283 284 281 277 276 275 274 269 264 256 249 242 236 232 229 228
319 318 314 309 315 318 314 311 308 303 301 295 295 297 299 300 299 298 298 301 297 284 289 291 284 278 275 265 265 264 261 257 253 245 237 230 225 220
311 311 312 311 315 308 309 311 308 302 298 296 296 299 300 303 302 301 300 302 297 294 291 289 287 285 282 273 268 263 259 254 251 246 238 229 221 215
309 304 302 306 310 315 312 309 307 303 298 293 286 290 293 297 298 297 296 296 288 286 287 286 296 296 294 285 271 265 263 256 251 244 236 226 218 213
316 312 310 309 311 317 317 312 311 311 310 300 293 291 292 294 298 300 304 307 308 307 318 294 292 300 297 290 283 273 270 264 256 246 237 224 215 210
321 319 318 317 317 319 317 309 311 314 317 319 317 314 310 308 311 305 309 311 313 305 329 313 290 304 300 291 293 291 278 265 258 250 237 222 209 204
317 321 319 321 321 322 319 305 301 306 308 311 314 316 321 322 321 317 310 306 308 299 317 316 296 297 289 297 299 292 283 274 262 245 234 220 206 198
312 313 314 319 322 323 323 318 318 318 318 324 328 328 329 332 331 325 317 310 298 299 313 320 304 312 310 302 302 307 307 285 260 245 227 208 205 196
316 317 322 327 330 329 328 329 332 335 336 341 343 339 333 332 335 334 332 327 318 322 335 331 334 332 328 322 318 319 319 324 322 290 205 185 180 171
331 326 328 335 342 335 334 340 344 343 343 346 345 341 343 351 355 351 345 346 350 347 347 352 355 1 358 344 342 349 351 350 357 18 61 89 102 128
325 332 350 349 350 348 347 349 351 355 359 359 0 1 0 3 5 2 3 5 13 8 4 358 352 349 32 13 359 6 11 18 22 32 55 68 66 75
352 352 349 348 345 345 345 347 351 359 0 3 7 10 9 11 13 14 17 21 23 19 15 7 3 11 20 43 22 14 21 26 31 37 45 55 54 47
9 354 349 345 342 344 347 348 351 350 352 358 6 9 13 18 21 20 20 23 26 26 23 17 17 21 33 31 19 18 25 30 36 43 44 47 51 47
360 351 347 342 342 346 348 349 348 349 352 355 0 7 13 21 26 25 25 26 27 29 31 28 25 22 28 25 19 25 29 33 35 45 48 54 59 61
351 349 344 342 342 345 346 348 348 348 352 354 359 4 17 27 33 33 36 32 35 37 37 33 22 17 26 41 49 43 38 39 46 44 34 46 53 55
347 344 341 341 342 344 345 347 349 353 356 0 360 4 19 35 42 45 44 43 44 44 45 39 33 36 44 51 51 46 44 42 46 50 49 49 51 53
343 340 339 342 344 344 345 347 349 351 356 357 359 3 19 40 49 53 50 51 53 53 52 50 48 48 49 50 52 49 47 45 47 52 54 55 66 72